{"data":{"norad_id":52840,"epoch":"2026-05-25T06:00:02.000160Z","epoch_age_seconds":56542,"freshness":"FRESH","line1":"1 52840U 22062L   26145.25002315  .00721412  00000+0  15021-1 0  9993","line2":"2 52840  53.2150  43.4141 0001531  65.9475 307.3286 15.42716260  5851","mean_motion":15.4271626,"eccentricity":0.0001531,"inclination_deg":53.215,"raan_deg":43.4141,"arg_perigee_deg":65.9475,"mean_anomaly_deg":307.3286,"bstar":0.015021,"rev_number":585,"period_min":93.341856654833,"perigee_km":437.05310134475,"apogee_km":439.1402320935,"semimajor_km":6816.2336667191,"source":"CELESTRAK","updated_at":"2026-05-25T13:38:17.242622Z"}}